Temp
6 5 5 4 4 4 4 3 2 1 2 1 1 0 0 0 -0 -0 -1 -2 -3 -3 -2 -2 -2 -2 -2 -2 -2 -3 -3 -3 -3 -3 -3 -3 -4 -4 -4 -5 -4 -4 -4
6 6 5 5 4 4 3 1 2 2 1 1 1 1 1 0 -1 -1 -2 -2 -2 -2 -2 -2 -2 -2 -2 -2 -3 -3 -4 -4 -4 -4 -4 -5 -5 -5 -5 -5 -6 -5 -5
6 6 5 5 4 3 3 3 2 1 1 1 0 -0 -0 -1 -1 -1 -2 -2 -2 -2 -2 -1 -2 -2 -3 -4 -4 -4 -5 -5 -6 -6 -7 -7 -7 -7 -7 -7 -7 -7 -7
4 4 4 3 3 3 2 2 1 1 1 1 0 0 -0 -1 -1 -1 -1 -1 -2 -2 -2 -3 -4 -5 -5 -5 -6 -6 -6 -7 -7 -8 -8 -9 -9 -9 -8 -9 -9 -9 -9
3 3 3 3 2 2 1 1 1 1 1 0 -0 -0 -1 -2 -2 -2 -2 -3 -3 -4 -5 -5 -5 -5 -6 -6 -6 -7 -8 -9 -9 -9 -10 -9 -10 -10 -10 -10 -10 -11 -11
3 3 2 2 1 1 1 -0 0 0 0 -1 -1 -1 -2 -2 -3 -3 -3 -4 -4 -5 -5 -5 -6 -7 -7 -8 -9 -10 -10 -10 -11 -10 -11 -11 -11 -11 -12 -12 -12 -13 -12
2 2 2 2 1 1 0 0 -0 -1 -1 -1 -2 -2 -3 -3 -3 -4 -4 -5 -5 -5 -6 -7 -7 -8 -8 -9 -10 -11 -11 -11 -12 -12 -11 -12 -12 -12 -13 -14 -14 -14 -13
2 2 3 2 1 0 -0 -0 -1 -1 -2 -2 -2 -2 -3 -3 -4 -4 -5 -5 -5 -6 -6 -7 -9 -10 -11 -11 -11 -12 -12 -12 -13 -12 -13 -12 -12 -13 -14 -15 -15 -14 -14
3 3 2 2 1 1 -0 -1 -2 -2 -2 -2 -2 -3 -3 -4 -4 -4 -5 -6 -7 -7 -9 -10 -11 -11 -12 -12 -13 -12 -13 -14 -13 -13 -14 -13 -13 -14 -15 -16 -17 -16 -15
2 2 2 1 0 -0 -1 -2 -2 -3 -3 -2 -3 -3 -4 -5 -5 -6 -7 -8 -9 -10 -11 -11 -12 -13 -13 -13 -13 -13 -14 -14 -14 -14 -14 -14 -15 -15 -16 -16 -17 -17 -17
1 1 1 0 -0 -1 -1 -2 -2 -3 -3 -3 -3 -4 -5 -6 -6 -7 -9 -10 -10 -11 -11 -11 -12 -13 -13 -14 -14 -14 -14 -14 -15 -15 -15 -15 -15 -15 -16 -16 -16 -16 -17
1 0 0 -0 -1 -2 -2 -3 -3 -3 -3 -4 -5 -5 -6 -7 -8 -9 -9 -10 -10 -10 -11 -11 -12 -13 -13 -14 -14 -14 -14 -15 -15 -15 -15 -16 -16 -16 -16 -16 -16 -17 -17
1 0 -0 -1 -2 -2 -2 -3 -3 -4 -4 -5 -5 -6 -7 -8 -8 -8 -9 -9 -10 -11 -12 -12 -12 -13 -14 -14 -14 -14 -14 -15 -15 -15 -16 -16 -16 -16 -16 -17 -17 -17 -17
0 -1 -1 -1 -2 -3 -3 -4 -4 -5 -5 -6 -6 -7 -7 -7 -8 -9 -9 -10 -11 -12 -12 -12 -12 -12 -14 -14 -15 -15 -15 -15 -16 -16 -16 -16 -16 -16 -17 -17 -17 -17 -17
-0 -1 -2 -2 -3 -3 -4 -4 -4 -5 -5 -6 -6 -7 -7 -8 -9 -9 -10 -11 -12 -12 -12 -12 -13 -13 -14 -14 -15 -15 -15 -16 -16 -16 -16 -16 -16 -17 -17 -17 -17 -18 -18
-1 -2 -3 -3 -3 -4 -4 -4 -5 -5 -6 -6 -7 -7 -8 -9 -10 -10 -11 -12 -12 -12 -12 -13 -14 -14 -14 -14 -15 -15 -15 -16 -16 -16 -16 -16 -16 -17 -17 -18 -18 -18 -19
-2 -2 -3 -3 -4 -4 -5 -5 -6 -6 -6 -7 -8 -8 -9 -10 -10 -11 -12 -12 -13 -13 -13 -14 -14 -15 -14 -14 -15 -15 -16 -16 -16 -16 -16 -16 -17 -17 -17 -18 -18 -19 -19
-2 -3 -3 -3 -4 -5 -6 -6 -6 -7 -7 -8 -8 -9 -9 -10 -11 -12 -13 -13 -13 -13 -14 -14 -15 -14 -15 -15 -15 -15 -16 -16 -16 -16 -16 -16 -17 -17 -17 -18 -18 -19 -20
-3 -3 -4 -4 -6 -6 -6 -6 -7 -7 -8 -8 -9 -10 -10 -11 -12 -13 -13 -13 -13 -14 -14 -15 -15 -15 -15 -15 -15 -15 -16 -16 -16 -17 -17 -17 -17 -17 -18 -18 -18 -19 -20
-3 -4 -5 -6 -6 -7 -7 -7 -7 -8 -8 -9 -10 -11 -11 -12 -12 -13 -13 -13 -14 -14 -15 -15 -15 -15 -15 -15 -15 -16 -16 -16 -16 -17 -17 -17 -17 -18 -18 -18 -19 -19 -20
-4 -5 -6 -7 -7 -7 -7 -8 -8 -8 -9 -10 -11 -11 -11 -12 -12 -13 -14 -14 -15 -15 -15 -15 -15 -15 -15 -16 -16 -16 -16 -16 -17 -17 -17 -17 -17 -18 -18 -18 -19 -19 -20
-5 -6 -7 -7 -7 -7 -8 -8 -9 -9 -10 -11 -11 -11 -12 -12 -13 -13 -14 -15 -15 -15 -15 -16 -16 -16 -16 -16 -16 -16 -16 -17 -17 -17 -17 -17 -17 -18 -18 -18 -19 -19 -19
-6 -7 -7 -8 -8 -8 -8 -9 -9 -10 -11 -11 -12 -12 -12 -13 -13 -14 -14 -15 -15 -15 -16 -16 -16 -16 -16 -16 -16 -16 -17 -17 -17 -17 -17 -17 -18 -18 -18 -18 -19 -19 -19
-8 -8 -8 -8 -8 -8 -9 -9 -10 -11 -12 -12 -12 -12 -13 -13 -14 -14 -15 -15 -15 -16 -16 -16 -16 -16 -16 -16 -16 -16 -17 -17 -17 -17 -17 -17 -17 -18 -18 -19 -19 -19 -19
-9 -8 -8 -8 -9 -9 -10 -10 -11 -11 -12 -12 -13 -13 -13 -13 -14 -14 -15 -15 -15 -16 -16 -16 -16 -16 -16 -16 -16 -17 -17 -17 -17 -18 -18 -18 -18 -18 -19 -19 -19 -19 -18
-8 -8 -8 -9 -9 -10 -10 -11 -11 -12 -12 -13 -13 -13 -13 -14 -14 -15 -15 -15 -15 -16 -16 -16 -16 -16 -16 -16 -16 -17 -17 -17 -17 -17 -18 -18 -18 -18 -19 -19 -19 -19 -19
Height
3160 3162 3162 3162 3162 3162 3161 3160 3160 3155 3159 3158 3158 3158 3158 3157 3154 3152 3149 3146 3143 3139 3135 3131 3126 3121 3117 3112 3107 3103 3098 3094 3088 3082 3079 3077 3075 3072 3071 3068 3066 3063 3061
3158 3158 3159 3161 3161 3160 3160 3158 3160 3159 3158 3158 3159 3157 3155 3152 3151 3148 3144 3140 3136 3132 3127 3123 3118 3113 3107 3102 3096 3090 3085 3080 3075 3069 3065 3060 3059 3058 3057 3055 3052 3049 3047
3155 3156 3158 3161 3161 3160 3159 3158 3158 3158 3158 3156 3154 3152 3151 3148 3145 3141 3136 3132 3127 3123 3119 3113 3107 3101 3096 3090 3085 3079 3074 3069 3065 3059 3053 3044 3039 3033 3035 3039 3038 3035 3033
3152 3155 3157 3157 3157 3157 3158 3158 3158 3156 3153 3151 3149 3147 3143 3140 3136 3132 3127 3123 3119 3114 3108 3101 3095 3089 3084 3078 3073 3067 3061 3056 3051 3047 3044 3038 3031 3024 3019 3016 3012 3015 3019
3151 3153 3154 3155 3155 3156 3156 3157 3156 3153 3150 3147 3144 3140 3136 3132 3127 3123 3118 3112 3106 3102 3096 3090 3084 3078 3072 3067 3062 3057 3052 3048 3044 3038 3035 3031 3025 3020 3013 3006 3004 3001 3000
3148 3149 3150 3152 3153 3154 3152 3150 3150 3148 3145 3141 3138 3134 3129 3124 3119 3114 3108 3103 3098 3092 3087 3082 3076 3071 3064 3058 3052 3048 3043 3038 3034 3030 3025 3020 3015 3011 3004 2997 2993 2992 2993
3145 3147 3147 3148 3147 3146 3147 3145 3144 3142 3138 3134 3130 3125 3120 3115 3111 3106 3100 3095 3090 3084 3079 3073 3067 3061 3054 3048 3043 3038 3033 3029 3025 3021 3018 3012 3007 3001 2996 2990 2986 2981 2983
3144 3144 3143 3142 3142 3141 3140 3138 3138 3135 3131 3128 3123 3118 3112 3107 3102 3097 3091 3085 3080 3075 3069 3062 3055 3050 3045 3039 3034 3029 3024 3019 3016 3012 3008 3004 2998 2993 2988 2983 2979 2974 2973
3142 3142 3140 3139 3139 3137 3136 3135 3133 3129 3126 3121 3115 3110 3105 3099 3094 3089 3084 3077 3070 3063 3056 3051 3046 3039 3033 3028 3023 3018 3013 3010 3007 3003 2999 2995 2990 2985 2981 2977 2973 2968 2961
3139 3138 3137 3136 3135 3133 3132 3130 3126 3122 3118 3113 3108 3103 3098 3092 3086 3079 3072 3066 3060 3054 3047 3040 3033 3027 3023 3018 3014 3011 3006 3002 2998 2995 2991 2986 2982 2978 2974 2970 2966 2962 2956
3134 3133 3133 3132 3131 3129 3127 3124 3120 3116 3112 3107 3102 3096 3089 3083 3077 3070 3063 3057 3051 3044 3037 3030 3024 3018 3013 3009 3005 3001 2997 2995 2991 2988 2984 2979 2974 2970 2965 2960 2957 2952 2948
3129 3129 3128 3127 3125 3123 3120 3116 3112 3108 3103 3099 3093 3087 3081 3074 3067 3061 3054 3048 3041 3034 3027 3021 3015 3010 3004 3000 2996 2993 2990 2987 2984 2980 2975 2971 2966 2961 2955 2949 2945 2940 2936
3125 3124 3122 3121 3118 3116 3112 3107 3103 3099 3095 3090 3084 3078 3071 3065 3060 3054 3047 3040 3032 3024 3018 3012 3006 3002 2998 2994 2990 2987 2984 2981 2977 2972 2967 2962 2956 2949 2944 2938 2932 2928 2924
3120 3118 3117 3116 3113 3108 3104 3100 3096 3092 3086 3081 3075 3070 3064 3058 3052 3045 3037 3029 3022 3015 3010 3004 2999 2994 2991 2988 2984 2982 2978 2974 2969 2964 2958 2952 2945 2938 2932 2926 2921 2916 2911
3114 3114 3112 3109 3105 3101 3097 3094 3089 3084 3079 3074 3069 3062 3056 3050 3043 3035 3027 3020 3013 3007 3002 2997 2992 2989 2986 2982 2979 2975 2971 2966 2961 2956 2950 2943 2935 2928 2922 2916 2911 2906 2901
3109 3107 3105 3101 3098 3095 3091 3087 3082 3077 3072 3067 3060 3054 3048 3041 3032 3025 3018 3011 3005 3000 2995 2991 2987 2983 2980 2977 2973 2969 2964 2960 2953 2947 2941 2933 2926 2919 2914 2909 2903 2898 2893
3103 3102 3099 3095 3092 3088 3084 3080 3075 3070 3064 3059 3052 3045 3038 3031 3024 3016 3009 3004 2998 2994 2989 2984 2981 2978 2975 2971 2967 2963 2959 2953 2947 2940 2932 2925 2918 2912 2906 2901 2895 2890 2886
3097 3095 3092 3089 3085 3080 3076 3072 3067 3062 3057 3051 3044 3037 3030 3024 3017 3010 3004 2998 2993 2988 2983 2979 2976 2973 2969 2966 2961 2958 2953 2947 2940 2933 2926 2918 2912 2906 2900 2894 2889 2884 2880
3090 3088 3084 3081 3077 3073 3069 3065 3060 3055 3049 3043 3036 3030 3023 3017 3011 3004 2998 2992 2987 2982 2978 2975 2971 2968 2964 2960 2956 2952 2946 2941 2935 2928 2920 2912 2907 2901 2896 2889 2884 2879 2874
3084 3080 3076 3072 3070 3066 3062 3058 3053 3047 3041 3034 3028 3022 3015 3009 3003 2997 2992 2986 2981 2977 2973 2970 2967 2963 2960 2956 2952 2946 2940 2935 2929 2924 2916 2909 2902 2897 2891 2884 2878 2873 2869
3074 3071 3068 3065 3062 3059 3055 3050 3045 3039 3033 3027 3021 3015 3008 3002 2996 2990 2984 2980 2975 2971 2968 2965 2962 2958 2955 2951 2947 2941 2935 2930 2924 2918 2912 2905 2899 2893 2887 2880 2875 2870 2865
3065 3063 3061 3059 3056 3051 3047 3042 3037 3032 3026 3020 3013 3007 3001 2994 2988 2983 2978 2974 2970 2966 2963 2960 2957 2954 2950 2947 2942 2937 2931 2925 2920 2914 2908 2901 2895 2889 2884 2877 2872 2868 2863
3057 3056 3055 3053 3049 3044 3040 3035 3029 3023 3017 3012 3006 2999 2993 2987 2981 2976 2971 2967 2964 2961 2958 2955 2952 2949 2946 2942 2938 2934 2928 2923 2917 2911 2904 2898 2892 2886 2881 2876 2871 2867 2863
3051 3051 3049 3046 3042 3037 3032 3026 3020 3015 3009 3004 2998 2992 2986 2980 2975 2970 2965 2962 2959 2955 2953 2950 2948 2945 2942 2939 2935 2930 2926 2920 2914 2909 2903 2896 2890 2885 2880 2876 2871 2867 2863
3047 3046 3042 3038 3034 3029 3023 3017 3012 3007 3002 2996 2990 2985 2979 2974 2968 2964 2960 2957 2953 2950 2948 2945 2943 2940 2938 2935 2931 2927 2922 2917 2912 2906 2901 2895 2890 2885 2880 2876 2872 2868 2864
3041 3038 3034 3030 3025 3020 3015 3009 3004 2999 2994 2988 2982 2977 2972 2967 2962 2958 2954 2951 2948 2945 2942 2940 2938 2936 2933 2931 2927 2924 2919 2915 2909 2904 2899 2894 2889 2884 2880 2876 2872 2868 2865
Wind_Speed
17 18 18 17 17 17 18 20 22 20 19 20 18 14 15 19 23 27 28 30 31 34 37 41 44 48 50 52 52 52 53 56 58 60 59 56 54 54 50 48 48 50 50
22 23 22 20 21 16 13 13 16 16 13 11 15 20 23 24 24 25 28 32 36 39 41 44 46 48 49 51 53 56 56 56 57 59 59 60 59 56 52 50 49 50 51
25 22 18 12 14 16 14 11 9 11 14 17 19 19 21 22 26 28 30 33 36 39 42 46 49 51 52 53 54 54 55 55 53 53 51 52 54 57 54 47 45 48 49
12 9 6 8 9 4 4 8 10 11 12 15 20 27 30 33 36 36 36 38 41 44 46 47 49 50 51 52 53 55 56 56 54 51 45 45 48 50 55 53 55 49 42
8 6 5 8 5 1 8 12 15 20 23 26 28 35 35 39 41 38 40 42 44 45 46 48 50 52 54 55 54 54 52 49 46 44 45 45 45 43 48 51 52 48 45
9 15 11 5 6 17 22 23 22 23 26 28 32 35 39 43 39 39 41 42 44 45 47 49 50 49 49 50 48 48 47 44 44 46 45 42 43 43 44 45 46 43 40
12 11 12 17 28 19 16 20 23 26 27 32 36 39 42 40 38 40 42 43 45 47 48 48 49 49 51 50 52 46 45 46 45 42 36 37 38 39 39 40 40 40 38
10 16 26 29 26 19 22 25 28 29 31 35 40 42 41 40 41 43 46 48 49 49 50 51 53 53 55 52 45 43 45 37 33 34 34 35 39 38 35 36 37 39 38
19 26 24 20 23 26 27 28 30 29 32 38 42 40 41 43 44 47 48 48 49 52 54 55 55 54 38 37 41 43 26 27 30 34 35 37 38 36 33 33 33 36 42
19 21 21 22 24 27 29 33 34 30 35 42 41 40 41 42 44 45 48 50 52 54 54 56 50 45 41 44 42 37 34 29 33 35 36 39 38 37 35 35 36 38 40
19 20 22 25 26 29 33 31 31 32 38 38 38 39 40 42 44 47 48 50 53 56 53 49 47 45 42 41 38 38 32 29 32 36 40 38 38 38 37 38 40 42 42
23 24 25 27 28 32 29 33 37 40 34 37 37 39 41 44 45 48 52 55 55 51 49 44 41 39 37 34 31 34 28 33 35 39 39 37 37 40 41 43 43 42 41
24 25 26 26 28 31 36 39 36 33 34 36 38 41 43 45 49 51 52 51 50 48 43 38 37 34 29 22 27 32 31 36 38 37 36 38 40 43 44 44 44 42 41
26 25 26 28 33 37 37 35 34 34 36 39 42 44 47 49 50 50 50 48 46 43 37 34 30 28 18 26 25 29 31 33 33 34 37 40 43 44 44 43 41 38 36
26 27 28 30 35 35 35 34 36 37 39 42 44 46 49 49 49 49 48 45 41 37 35 30 26 20 26 29 26 27 27 30 33 36 38 42 44 42 39 36 35 36 35
27 27 29 34 35 33 34 35 36 38 40 43 46 48 48 48 49 48 46 41 38 35 32 29 26 27 25 25 26 28 30 32 36 37 39 42 40 34 33 33 33 32 32
26 28 32 36 34 34 34 34 36 39 42 45 46 46 47 47 47 45 42 40 35 34 32 29 25 24 24 25 27 28 30 33 35 38 40 41 34 32 34 33 31 29 27
27 30 34 35 35 32 32 35 38 40 43 44 44 45 46 44 42 41 39 37 33 31 29 25 22 22 24 26 27 29 31 33 36 37 39 37 31 31 31 31 30 27 24
29 35 35 33 30 31 32 36 38 41 42 43 44 44 43 41 40 39 37 35 32 29 26 24 23 23 25 26 27 30 33 35 35 36 38 35 30 29 29 29 28 27 23
35 38 35 28 30 31 34 36 39 41 42 42 42 41 40 41 40 38 36 34 30 27 26 24 24 24 25 25 27 31 34 35 35 34 35 32 29 28 28 28 28 25 21
33 30 29 28 29 33 35 38 40 41 40 39 39 39 40 39 37 36 35 32 29 26 25 23 22 23 24 24 28 31 34 35 35 34 34 30 27 26 26 26 24 23 22
27 26 24 27 31 35 38 39 40 39 38 38 38 39 39 38 36 36 35 30 26 25 23 22 22 23 23 24 27 30 33 34 34 32 32 31 27 24 24 23 21 20 19
21 22 24 29 33 36 38 38 39 38 38 37 38 39 39 37 36 35 33 28 26 24 22 21 21 22 22 24 27 29 31 32 31 31 30 30 27 23 22 22 20 19 19
19 22 27 32 34 36 37 38 38 38 38 38 38 39 38 37 34 33 29 26 25 24 22 21 21 21 21 23 26 28 30 29 29 27 27 29 27 23 21 19 18 20 19
19 25 30 33 35 36 37 38 38 38 38 39 39 38 38 36 33 30 28 25 24 23 21 20 20 21 21 22 24 27 28 28 27 26 25 26 25 21 19 20 18 17 18
24 29 32 35 35 36 37 38 39 38 38 38 38 37 36 34 32 28 27 25 23 22 20 19 19 20 20 20 23 25 26 27 27 26 24 25 25 22 19 17 17 16 16
Wind_Direction
244 241 240 250 254 266 267 271 275 311 310 310 323 316 303 301 300 298 296 295 292 292 291 292 294 296 296 296 295 296 297 296 296 296 295 295 294 293 293 290 286 283 280
262 260 255 253 251 260 271 275 285 288 298 299 296 306 307 304 305 303 298 294 293 292 291 293 295 297 298 298 299 300 299 299 299 298 297 297 294 292 292 290 286 282 279
263 268 270 272 256 267 276 285 296 295 300 308 323 326 320 315 314 313 305 300 297 298 299 299 301 302 302 301 301 302 301 301 302 303 306 306 306 304 301 298 294 290 287
258 261 260 287 271 237 284 295 294 305 319 320 323 329 330 329 324 318 314 311 308 306 305 305 305 305 305 305 305 305 305 305 306 306 306 309 310 312 309 311 314 306 293
220 214 231 240 228 232 359 334 314 304 308 317 322 326 328 326 323 317 314 313 311 310 309 309 308 308 306 305 304 302 304 307 308 305 303 308 309 309 310 312 311 309 306
223 277 251 240 272 305 296 295 293 308 314 324 324 322 320 322 319 315 312 311 311 310 309 307 306 306 306 309 310 310 309 310 310 308 305 309 309 309 308 309 307 303 303
237 246 281 300 302 301 314 307 310 313 320 323 321 318 319 318 315 313 312 310 309 308 308 308 309 312 315 317 316 308 307 304 302 298 298 307 309 309 306 304 300 297 298
262 302 311 302 304 304 308 308 311 311 316 318 318 318 317 316 315 314 314 312 309 309 311 316 319 319 315 311 313 305 301 300 295 300 306 310 310 307 307 302 299 297 294
297 293 296 305 304 300 300 294 300 309 312 317 317 316 315 314 314 311 308 310 315 318 321 319 315 313 310 309 310 304 302 303 306 304 305 310 308 306 306 303 301 300 300
285 286 284 288 289 289 290 294 305 309 316 315 311 312 311 311 311 312 317 319 320 319 315 313 315 315 307 306 307 303 312 303 300 308 309 309 306 303 302 303 302 299 296
276 277 273 274 277 278 287 293 297 297 309 308 309 310 311 311 314 318 318 316 314 312 315 315 314 312 311 308 307 303 299 305 306 305 307 306 302 300 301 301 299 296 293
264 265 272 272 265 275 287 289 289 306 310 309 309 310 313 317 319 317 315 314 314 316 314 315 315 311 308 312 309 307 288 297 299 304 306 304 301 303 305 303 302 299 295
265 274 275 271 276 287 284 293 314 310 308 308 313 318 320 318 317 315 314 314 315 316 317 317 316 313 309 316 314 300 297 302 303 305 305 307 308 309 308 306 303 300 295
274 273 272 276 280 282 301 314 308 307 312 317 319 318 316 316 316 316 317 318 316 316 316 315 313 312 297 318 305 300 303 304 308 309 312 313 312 312 310 307 305 303 299
270 271 276 281 285 307 312 305 307 312 314 316 316 316 316 317 318 319 319 318 317 316 316 313 313 307 304 311 313 311 312 314 315 316 316 315 315 313 310 309 309 306 303
273 278 280 289 305 306 304 307 309 311 314 316 316 317 317 320 321 321 321 322 320 319 318 315 307 307 312 312 317 322 321 320 319 320 319 319 318 314 314 314 310 307 304
276 283 295 306 308 307 307 305 309 315 316 317 317 318 321 322 322 324 324 323 321 319 318 313 308 307 309 318 322 322 323 323 323 324 325 324 321 319 320 319 317 314 307
283 291 301 302 305 304 305 310 314 315 317 317 318 320 320 322 324 325 323 322 320 320 317 314 311 312 318 321 324 325 325 327 327 328 329 328 323 321 322 323 322 319 314
284 294 300 303 301 303 309 313 314 315 316 317 319 320 320 323 322 322 321 322 321 320 318 314 315 318 320 323 325 327 329 330 330 332 333 329 323 323 324 325 323 321 319
293 301 300 300 301 306 310 310 313 315 317 318 319 320 320 321 321 319 319 321 319 318 315 313 314 317 320 325 328 330 332 332 332 334 333 330 324 325 327 327 327 326 325
301 300 298 298 302 308 309 312 315 316 316 316 319 321 320 320 321 320 320 320 316 314 312 310 314 317 322 327 330 332 333 333 335 335 335 335 329 328 330 333 333 331 329
298 294 294 299 307 310 312 313 313 313 313 316 319 323 323 321 321 321 318 316 312 310 309 311 314 317 324 327 332 334 334 335 334 334 338 339 336 335 337 341 340 340 341
294 295 300 307 309 309 310 311 312 312 313 316 319 322 325 323 320 320 317 313 311 309 307 309 312 317 323 327 333 335 336 334 334 336 341 344 342 342 346 353 349 349 352
297 302 305 308 309 310 311 311 312 312 313 315 318 321 324 323 319 319 315 312 310 307 306 307 310 315 321 327 333 335 335 337 336 337 343 347 347 347 351 358 358 360 358
301 304 308 311 311 311 311 311 313 312 312 314 318 320 321 322 318 316 312 311 309 307 306 304 307 313 319 325 332 335 337 339 341 343 347 349 351 349 348 349 357 1 1
305 311 314 312 312 312 313 312 313 313 313 315 317 317 319 320 318 315 311 312 309 308 307 303 303 310 316 324 331 334 338 341 343 346 350 350 352 353 352 350 349 359 3